User: anonymous   Login
Location: Arezzo
(43.4170°N, 11.8830°E)
Time: 09:07:48
(UTC+02:00)
Language:

STARLINK-2695 - Orbit

View from above orbital plane
View from above orbital plane
View from above satellite
View from above satellite

Ground track
Ground track

The orbit data is extracted from the following two-line orbital elements,

1 48644C 21044G   21266.14912881  .00002981  00000-0  19976-3 0  2660
2 48644  53.0545 232.4057 0001363  65.4331 247.0735 15.06388000    18
Epoch (UTC): 23 September 2021 03:34:44
Eccentricity: 0.0001363
inclination: 53.0545°
perigee height: 546 km
apogee height: 548 km
right ascension of ascending node: 232.4057°
argument of perigee: 65.4331°
revolutions per day: 15.06388000
mean anomaly at epoch: 247.0735°
orbit number at epoch: 1

The dashed part of the orbit path shows where the satellite is in the earth's shadow,  

DLR